Satellite: MET-3/5
Catalog number: 21655
Epoch time:      09196.94157113
Element set:    0641
Inclination:      082.5518 deg
RA of node:       186.1810 deg
Eccentricity:    0.0014645
Arg of perigee:   105.0684 deg
Mean anomaly:     255.2061 deg
Mean motion:   13.17019590 rev/day
Decay rate:        5.1e-07 rev/day^2
Epoch rev:           86141
Checksum:              286

Satellite: MET-2/21
Catalog number: 22782
Epoch time:      09196.81550733
Element set:    0512
Inclination:      082.5489 deg
RA of node:       159.3006 deg
Eccentricity:    0.0020684
Arg of perigee:   266.8064 deg
Mean anomaly:     093.0727 deg
Mean motion:   13.83636369 rev/day
Decay rate:        3.8e-07 rev/day^2
Epoch rev:           80156
Checksum:              321

Satellite: OKEAN-4
Catalog number: 23317
Epoch time:      09197.72593640
Element set:     963
Inclination:      082.5422 deg
RA of node:       306.9215 deg
Eccentricity:    0.0020349
Arg of perigee:   267.8669 deg
Mean anomaly:     092.0235 deg
Mean motion:   14.82708006 rev/day
Decay rate:        3.0e-07 rev/day^2
Epoch rev:           79674
Checksum:              315

Satellite: NOAA-14
Catalog number: 23455
Epoch time:      09197.39977262
Element set:     690
Inclination:      098.9078 deg
RA of node:       274.9770 deg
Eccentricity:    0.0010435
Arg of perigee:   107.1838 deg
Mean anomaly:     253.0471 deg
Mean motion:   14.13767966 rev/day
Decay rate:       2.37e-06 rev/day^2
Epoch rev:           75005
Checksum:              339

Satellite: NOAA-15
Catalog number: 25338
Epoch time:      09197.54814028
Element set:       7
Inclination:      098.5851 deg
RA of node:       186.1124 deg
Eccentricity:    0.0010166
Arg of perigee:   338.6261 deg
Mean anomaly:     021.4475 deg
Mean motion:   14.24772942 rev/day
Decay rate:        2.1e-07 rev/day^2
Epoch rev:           58095
Checksum:              300

Satellite: RESURS
Catalog number: 25394
Epoch time:      09197.66758381
Element set:     261
Inclination:      098.3362 deg
RA of node:       228.5120 deg
Eccentricity:    0.0002168
Arg of perigee:   104.0693 deg
Mean anomaly:     256.0727 deg
Mean motion:   14.24186064 rev/day
Decay rate:       -9.0e-08 rev/day^2
Epoch rev:           57259
Checksum:              307

Satellite: FENGYUN1
Catalog number: 25730
Epoch time:      09197.77510606
Element set:     804
Inclination:      098.7549 deg
RA of node:       167.0506 deg
Eccentricity:    0.0022022
Arg of perigee:   128.2420 deg
Mean anomaly:     232.0738 deg
Mean motion:   14.07913943 rev/day
Decay rate:       1.71e-06 rev/day^2
Epoch rev:           52448
Checksum:              289

Satellite: OKEAN-0
Catalog number: 25860
Epoch time:      09197.77733485
Element set:     732
Inclination:      097.7875 deg
RA of node:       177.7829 deg
Eccentricity:    0.0001899
Arg of perigee:   076.7906 deg
Mean anomaly:     283.3513 deg
Mean motion:   14.73580211 rev/day
Decay rate:        1.0e-08 rev/day^2
Epoch rev:           53750
Checksum:              339

Satellite: NOAA-16
Catalog number: 26536
Epoch time:      09197.54694152
Element set:     485
Inclination:      099.1762 deg
RA of node:       201.9237 deg
Eccentricity:    0.0010305
Arg of perigee:   194.1578 deg
Mean anomaly:     165.9292 deg
Mean motion:   14.12526797 rev/day
Decay rate:        5.9e-07 rev/day^2
Epoch rev:           45444
Checksum:              334

Satellite: NOAA-17
Catalog number: 27453
Epoch time:      09197.43996327
Element set:     486
Inclination:      098.4815 deg
RA of node:       255.5003 deg
Eccentricity:    0.0012398
Arg of perigee:   043.0470 deg
Mean anomaly:     317.1685 deg
Mean motion:   14.24076237 rev/day
Decay rate:       -8.5e-07 rev/day^2
Epoch rev:           36691
Checksum:              329

Satellite: NOAA-18
Catalog number: 28654
Epoch time:      09197.39871383
Element set:     977
Inclination:      098.9066 deg
RA of node:       140.4122 deg
Eccentricity:    0.0013255
Arg of perigee:   281.9699 deg
Mean anomaly:     077.9986 deg
Mean motion:   14.11271872 rev/day
Decay rate:       3.39e-06 rev/day^2
Epoch rev:           21407
Checksum:              356

Satellite: NOAA-19
Catalog number: 33591
Epoch time:      09197.45596384
Element set:     179
Inclination:      098.7466 deg
RA of node:       142.4567 deg
Eccentricity:    0.0014456
Arg of perigee:   156.4982 deg
Mean anomaly:     203.6831 deg
Mean motion:   14.10972525 rev/day
Decay rate:       1.34e-06 rev/day^2
Epoch rev:            2256
Checksum:              334

/EX
SB KEPS @ AMSAT  $ORB09197.M
Orbital Elements  09197.MISC

HR AMSAT ORBITAL ELEMENTS FOR MANNED AND MISCELLANEOUS SATELLITES
FROM WA5QGD FORT WORTH,TX July 16, 2009
Send Subscribe/unsubscribe to KEPS at 
http://www.amsat.org/mailman/listinfo/keps
BID: ORB09197.M
TO ALL RADIO AMATEURS BT

Satellite: HUBBLE
Catalog number: 20580
Epoch time:      09194.51349712
Element set:    0420
Inclination:      028.4709 deg
RA of node:       290.4849 deg
Eccentricity:    0.0003571
Arg of perigee:   201.0834 deg
Mean anomaly:     158.9591 deg
Mean motion:   15.00815143 rev/day
Decay rate:       3.09e-06 rev/day^2
Epoch rev:           85381
Checksum:              288

Satellite: ISS
Catalog number: 25544
Epoch time:      09197.45336425
Element set:     227
Inclination:      051.6385 deg
RA of node:       156.5983 deg
Eccentricity:    0.0007078
Arg of perigee:   231.3404 deg
Mean anomaly:     224.6831 deg
Mean motion:   15.74393905 rev/day
Decay rate:      9.883e-05 rev/day^2
Epoch rev:           61056
Checksum:              319

Satellite: CO-58
Catalog number: 28895
Epoch time:      09196.23566075
Element set:    0348
Inclination:      098.0529 deg
RA of node:       086.0641 deg
Eccentricity:    0.0016581
Arg of perigee:   260.2683 deg
Mean anomaly:     099.6639 deg
Mean motion:   14.59780770 rev/day
Decay rate:       -4.3e-07 rev/day^2
Epoch rev:           19782
Checksum:              361

Satellite: FALCON
Catalog number: 30776
Epoch time:      09197.58758887
Element set:     614
Inclination:      035.4344 deg
RA of node:       281.0312 deg
Eccentricity:    0.0000477
Arg of perigee:   232.3684 deg
Mean anomaly:     127.6990 deg
Mean motion:   15.03270605 rev/day
Decay rate:       2.34e-06 rev/day^2
Epoch rev:           12952
Checksum:              302

Satellite: MAST
Catalog number: 31126
Epoch time:      09197.70466046
Element set:     640
Inclination:      097.9864 deg
RA of node:       251.1569 deg
Eccentricity:    0.0094350
Arg of perigee:   187.6988 deg
Mean anomaly:     172.2744 deg
Mean motion:   14.53506859 rev/day
Decay rate:       -5.7e-07 rev/day^2
Epoch rev:           11932
Checksum:              334

Satellite: CAPE1
Catalog number: 31130
Epoch time:      09197.70372096
Element set:     649
Inclination:      097.9865 deg
RA of node:       249.2722 deg
Eccentricity:    0.0102719
Arg of perigee:   193.1079 deg
Mean anomaly:     166.7444 deg
Mean motion:   14.52072333 rev/day
Decay rate:      -1.67e-06 rev/day^2
Epoch rev:           11897
Checksum:              322

Satellite: COMPASS
Catalog number: 32787
Epoch time:      09196.33139446
Element set:    0410
Inclination:      097.9417 deg
RA of node:       259.9173 deg
Eccentricity:    0.0014925
Arg of perigee:   304.0241 deg
Mean anomaly:     055.9549 deg
Mean motion:   14.81625853 rev/day
Decay rate:        8.0e-07 rev/day^2
Epoch rev:           06561
Checksum:              314

Satellite: AAUSAT2
Catalog number: 32788
Epoch time:      09197.17480579
Element set:     408
Inclination:      097.9406 deg
RA of node:       260.8160 deg
Eccentricity:    0.0014503
Arg of perigee:   302.4572 deg
Mean anomaly:     057.5236 deg
Mean motion:   14.81750866 rev/day
Decay rate:        9.3e-07 rev/day^2
Epoch rev:            6574
Checksum:              321

Satellite: DO-64
Catalog number: 32789
Epoch time:      09196.72395769
Element set:    0423
Inclination:      097.9452 deg
RA of node:       260.5485 deg
Eccentricity:    0.0014817
Arg of perigee:   302.4727 deg
Mean anomaly:     057.5047 deg
Mean motion:   14.81743711 rev/day
Decay rate:       2.01e-06 rev/day^2
Epoch rev:           06567
Checksum:              335

Satellite: CO-66
Catalog number: 32791
Epoch time:      09197.72833145
Element set:     404
Inclination:      097.9404 deg
RA of node:       261.3336 deg
Eccentricity:    0.0015378
Arg of perigee:   297.9419 deg
Mean anomaly:     062.0229 deg
Mean motion:   14.81453236 rev/day
Decay rate:      -1.45e-06 rev/day^2
Epoch rev:            6578
Checksum:              328

Satellite: RS-30
Catalog number: 32953
Epoch time:      09197.16608759
Element set:     355
Inclination:      082.4993 deg
RA of node:       238.5918 deg
Eccentricity:    0.0020509
Arg of perigee:   113.6973 deg
Mean anomaly:     246.6259 deg
Mean motion:   12.43002392 rev/day
Decay rate:        1.0e-07 rev/day^2
Epoch rev:            5199
Checksum:              319

Satellite: TACSAT-3
Catalog number: 35001
Epoch time:      09196.95976248
Element set:    0069
Inclination:      040.4561 deg
RA of node:       068.5832 deg
Eccentricity:    0.0025058
Arg of perigee:   012.4092 deg
Mean anomaly:     347.7334 deg
Mean motion:   15.38923799 rev/day
Decay rate:      1.640e-05 rev/day^2
Epoch rev:           00878
Checksum:              322

Satellite: PHARMSAT
Catalog number: 35002
Epoch time:      09196.80144092
Element set:      49
Inclination:      040.4687 deg
RA of node:       069.1858 deg
Eccentricity:    0.0027584
Arg of perigee:   015.8288 deg
Mean anomaly:     344.3381 deg
Mean motion:   15.39690040 rev/day
Decay rate:      1.374e-05 rev/day^2
Epoch rev:             875
Checksum:              306

